This is the latest recevied weather packets stored in our database for station/object SV1JSO-13. If no packets are shown the sender has not sent any weather packets the latest 10 day(s).
| Time | Temp. | Humidity | Pressure | Rain* | Wind** | Luminosity | Snow |
|---|---|---|---|---|---|---|---|
| 1788224700 | 27.22° C | 44% | 1007.6 hPa | 0 mm | - | 0 W/m² | - |
| 1788224400 | 27.22° C | 45% | 1007.5 hPa | 0 mm | - | 0 W/m² | - |
| 1788224100 | 27.22° C | 45% | 1007.5 hPa | 0 mm | - | 0 W/m² | - |
| 1788223800 | 27.78° C | 42% | 1007.6 hPa | 0 mm | - | 0 W/m² | - |
| 1788223500 | 27.78° C | 38% | 1007.6 hPa | 0 mm | - | 0 W/m² | - |
| 1788223200 | 27.22° C | 38% | 1007.6 hPa | 0 mm | - | 0 W/m² | - |
| 1788222900 | 27.22° C | 39% | 1007.6 hPa | 0 mm | - | 0 W/m² | - |
| 1788222600 | 27.22° C | 38% | 1007.5 hPa | 0 mm | - | 0 W/m² | - |
| 1788222300 | 27.78° C | 38% | 1007.6 hPa | 0 mm | - | 0 W/m² | - |
| 1788222000 | 27.78° C | 38% | 1007.7 hPa | 0 mm | - | 0 W/m² | - |
| 1788221700 | 27.78° C | 38% | 1007.7 hPa | 0 mm | - | 0 W/m² | - |
| 1788221400 | 27.78° C | 36% | 1007.7 hPa | 0 mm | - | 0 W/m² | - |
| 1788221100 | 27.78° C | 34% | 1007.7 hPa | 0 mm | - | 0 W/m² | - |
| 1788220800 | 27.78° C | 34% | 1007.6 hPa | 0 mm | - | 0 W/m² | - |
| 1788220500 | 28.33° C | 34% | 1007.6 hPa | 0 mm | - | 0 W/m² | - |
| 1788220200 | 28.33° C | 34% | 1007.8 hPa | 0 mm | - | 0 W/m² | - |
| 1788219900 | 28.33° C | 33% | 1007.9 hPa | 0 mm | - | 0 W/m² | - |
| 1788219600 | 28.33° C | 33% | 1007.9 hPa | 0 mm | - | 0 W/m² | - |
| 1788219300 | 28.33° C | 32% | 1007.9 hPa | 0 mm | - | 0 W/m² | - |
| 1788219000 | 28.89° C | 32% | 1008 hPa | 0 mm | - | 0 W/m² | - |
| 1788218700 | 28.89° C | 31% | 1008 hPa | 0 mm | - | 0 W/m² | - |
| 1788218400 | 29.44° C | 30% | 1008 hPa | 0 mm | - | 0 W/m² | - |
| 1788218100 | 28.89° C | 31% | 1008.1 hPa | 0 mm | - | 0 W/m² | - |
| 1788217800 | 28.33° C | 33% | 1008.1 hPa | 0 mm | - | 0 W/m² | - |
| 1788217500 | 28.33° C | 34% | 1008.2 hPa | 0 mm | - | 0 W/m² | - |
* Rain latest hour (hover to see other rain measurements)
** Current wind speed in m/s (hover to see current wind gust speed)